Weather History for McMinnville, OR

Change the Weather History Date:

Tuesday, December 11, 2012

  Actual Average Record
Temperature  
Mean Temperature 45 °F 40 °F  
Max Temperature 48 °F 46 °F 62 °F (1924)
Min Temperature 41 °F 34 °F -1 °F (1972)
Degree Days  
Heating Degree Days 20 25  
Month to date heating degree days 200 266  
Since 1 July heating degree days 1143 1488  
Moisture  
Dew Point 41 °F    
Average Humidity 88    
Maximum Humidity 93    
Minimum Humidity 82    
Precipitation  
Precipitation 0.12 in 0.19 in 1.82 in (1995)
Month to date precipitation 3.10 2.11  
Year to date precipitation 44.82 35.76  
Snow  
Snow 0.00 in - - ()
Month to date snowfall 0.0  
Snow Depth 0.00 in    
Sea Level Pressure  
Sea Level Pressure 29.80 in    
Wind  
Wind Speed 8 mph (SSW)    
Max Wind Speed 20 mph    
Max Gust Speed 25 mph    
Visibility 10 miles    
Events Rain    
T = Trace of Precipitation, MM = Missing Value Source: NWS Daily Summary

Daily Weather History Graph

Daily Weather History Graph

Search for Another Location

Airport:

Trip Planner

Search our weather history database for the weather conditions in past years. The results will help you decide how hot, cold, wet, or windy it might be!

Date:

Astronomy

Dec. 11, 2012 Rise Set
Actual Time 7:41 AM PST 4:30 PM PST
Civil Twilight 7:08 AM PST 5:04 PM PST
Nautical Twilight 6:30 AM PST 5:41 PM PST
Astronomical Twilight 5:55 AM PST 6:17 PM PST
Moon 5:41 AM PST (12/11) 3:16 PM PST (12/11)
Length of Visible Light 9h 56m
Length of Day
8h 48m
Waning Crescent, 4% of the Moon is Illuminated
Dec 11
Waning Crescent
Dec 13
New
Dec 19
First Quarter
Dec 28
Full
Jan 4
Last Quarter

Hourly Weather History & Observations

Time (PST) Temp. Windchill Dew Point Humidity Pressure Visibility Wind Dir Wind Speed Gust Speed Precip Events Conditions
12:53 AM 46.9 °F - 43.0 °F 86% 30.11 in 10.0 mi Calm Calm - N/A   Overcast
1:53 AM 46.9 °F - 44.1 °F 90% 30.06 in 10.0 mi Calm Calm - N/A   Overcast
2:53 AM 46.9 °F - 44.1 °F 90% 30.02 in 10.0 mi Calm Calm - N/A   Overcast
3:53 AM 46.9 °F - 43.0 °F 86% 30.00 in 10.0 mi SW 8.1 mph - N/A   Overcast
4:16 AM 46.4 °F 42.9 °F 41.0 °F 81% 29.98 in 10.0 mi SW 6.9 mph - N/A   Overcast
4:24 AM 44.6 °F 40.7 °F 41.0 °F 87% 29.97 in 10.0 mi SW 6.9 mph - N/A   Overcast
4:53 AM 46.0 °F 43.9 °F 41.0 °F 83% 29.95 in 10.0 mi SSW 4.6 mph - N/A   Overcast
5:53 AM 45.0 °F 41.8 °F 41.0 °F 86% 29.92 in 10.0 mi South 5.8 mph - N/A   Overcast
6:30 AM 44.6 °F - 41.0 °F 87% 29.92 in 10.0 mi North - - N/A   Mostly Cloudy
6:53 AM 45.0 °F 42.6 °F 41.0 °F 86% 29.90 in 10.0 mi South 4.6 mph - N/A   Overcast
7:09 AM 44.6 °F 42.2 °F 41.0 °F 87% 29.90 in 10.0 mi SSW 4.6 mph - N/A   Overcast
7:53 AM 46.0 °F 43.1 °F 41.0 °F 83% 29.89 in 10.0 mi SSW 5.8 mph - N/A   Overcast
8:49 AM 46.4 °F 41.5 °F 42.8 °F 87% 29.88 in 10.0 mi South 10.4 mph - N/A   Overcast
8:53 AM 46.0 °F 41.0 °F 42.1 °F 86% 29.88 in 10.0 mi South 10.4 mph - N/A   Overcast
9:53 AM 46.0 °F 39.9 °F 41.0 °F 83% 29.83 in 10.0 mi South 13.8 mph - 0.00 in Rain Light Rain
10:53 AM 46.9 °F - 39.9 °F 77% 29.80 in 10.0 mi South 12.7 mph 23.0 mph 0.00 in   Overcast
11:53 AM 46.0 °F 39.3 °F 42.1 °F 86% 29.78 in 10.0 mi South 16.1 mph 21.9 mph 0.01 in Rain Light Rain
12:53 PM 46.0 °F 39.6 °F 41.0 °F 83% 29.74 in 10.0 mi South 15.0 mph 25.3 mph 0.02 in Rain Light Rain
1:53 PM 46.0 °F 40.6 °F 41.0 °F 83% 29.70 in 10.0 mi South 11.5 mph - 0.01 in Rain Light Rain
2:53 PM 46.0 °F 40.2 °F 41.0 °F 83% 29.66 in 10.0 mi SSE 12.7 mph - 0.04 in   Overcast
3:24 PM 46.4 °F 41.1 °F 41.0 °F 81% 29.65 in 10.0 mi South 11.5 mph - 0.01 in Rain Light Rain
3:53 PM 46.0 °F 40.6 °F 41.0 °F 83% 29.65 in 10.0 mi South 11.5 mph 20.7 mph 0.02 in Rain Light Rain
4:53 PM 46.0 °F 39.6 °F 42.1 °F 86% 29.63 in 8.0 mi South 15.0 mph 20.7 mph 0.02 in Rain Light Rain
5:09 PM 46.4 °F 42.4 °F 42.8 °F 87% 29.64 in 10.0 mi South 8.1 mph - 0.00 in Rain Light Rain
5:16 PM 46.4 °F 42.9 °F 42.8 °F 87% 29.64 in 10.0 mi South 6.9 mph - 0.00 in   Overcast
5:53 PM 45.0 °F 41.2 °F 42.1 °F 90% 29.64 in 10.0 mi SSW 6.9 mph - 0.00 in Rain Light Rain
6:17 PM 44.6 °F 40.7 °F 42.8 °F 93% 29.64 in 10.0 mi SSW 6.9 mph - N/A   Overcast
6:53 PM 45.0 °F 41.8 °F 42.1 °F 90% 29.65 in 10.0 mi SW 5.8 mph - N/A   Overcast
7:53 PM 45.0 °F 40.6 °F 42.1 °F 90% 29.66 in 10.0 mi WSW 8.1 mph - N/A   Overcast
8:53 PM 44.1 °F 38.6 °F 41.0 °F 89% 29.67 in 10.0 mi WSW 10.4 mph - N/A   Overcast
9:53 PM 42.1 °F 39.2 °F 39.0 °F 89% 29.68 in 10.0 mi SW 4.6 mph - N/A   Mostly Cloudy
10:53 PM 42.1 °F 37.1 °F 39.0 °F 89% 29.70 in 10.0 mi WSW 8.1 mph - N/A   Clear
11:53 PM 42.1 °F 36.1 °F 37.9 °F 85% 29.72 in 10.0 mi SW 10.4 mph - N/A   Partly Cloudy